Location: site
(53.0000°N, 23.0500°E)
Time: 22:31:08
(UTC+01:00)

SAOCOM 1-A - Pass Details

Date: 25 January 2020
Orbit: 621 x 623 km, 97.9° (Epoch: 24 February)

Event Time Altitude Azimuth Distance (km) Brightness Sun altitude
Exits shadow 19:38:03 - 349° (NNW) 2,192 ? -32.7°
Reaches altitude 10° 19:38:45 10° 342° (NNW) 2,006 ? -32.8°
Maximum altitude 19:41:23 16° 305° (NW) 1,640 ? -33.1°
Drops below altitude 10° 19:44:01 10° 267° (W) 1,997 ? -33.5°
Sets 19:46:54 0° 246° (WSW) 2,898 ? -34.0°
